Hourly Weather Boma

Today, 22 September, Tuesday

Time Temperature Precipitation Wind Pressure Humidity
00:00 +22°C° 0.1 mm 1 mps 701 mmHg 98%
01:00 +20°C° 0 mm 0 mps 700 mmHg 95%
02:00 +20°C° 0.1 mm 0 mps 700 mmHg 96%
03:00 +20°C° 0.1 mm 0 mps 700 mmHg 97%
04:00 +19°C° 0.1 mm 0 mps 700 mmHg 97%
05:00 +20°C° 0.2 mm 0 mps 700 mmHg 98%
06:00 +20°C° 0.2 mm 0 mps 701 mmHg 98%
07:00 +20°C° 0 mm 0 mps 701 mmHg 98%
08:00 +20°C° 0.9 mm 0 mps 702 mmHg 98%
09:00 +20°C° 0.9 mm 0 mps 702 mmHg 98%
10:00 +22°C° 0.9 mm 1 mps 702 mmHg 98%
11:00 +23°C° 0.4 mm 1 mps 702 mmHg 96%
12:00 +23°C° 0.4 mm 1 mps 701 mmHg 93%
13:00 +24°C° 0.4 mm 1 mps 700 mmHg 90%
14:00 +25°C° 0 mm 1 mps 699 mmHg 83%
15:00 +26°C° 0 mm 1 mps 699 mmHg 76%
16:00 +25°C° 0 mm 0 mps 698 mmHg 69%
17:00 +24°C° 0 mm 0 mps 698 mmHg 76%
18:00 +22°C° 0 mm 0 mps 699 mmHg 84%
19:00 +21°C° 0 mm 0 mps 699 mmHg 91%
20:00 +21°C° 0.1 mm 0 mps 700 mmHg 91%
21:00 +21°C° 0.1 mm 0 mps 700 mmHg 91%
22:00 +22°C° 0.1 mm 1 mps 701 mmHg 91%
23:00 +22°C° 0.4 mm 1 mps 701 mmHg 93%

Tomorrow, 23 September, Wednesday

Time Temperature Precipitation Wind Pressure Humidity
00:00 +22°C° 0.4 mm 1 mps 701 mmHg 94%
01:00 +22°C° 0.4 mm 1 mps 700 mmHg 96%
02:00 +20°C° 0.4 mm 0 mps 700 mmHg 97%
03:00 +19°C° 0.4 mm 0 mps 700 mmHg 98%
04:00 +19°C° 0.4 mm 0 mps 700 mmHg 99%
05:00 +20°C° 0.3 mm 0 mps 701 mmHg 98%
06:00 +20°C° 0.3 mm 0 mps 701 mmHg 98%
07:00 +20°C° 0.3 mm 0 mps 702 mmHg 98%
08:00 +20°C° 0.2 mm 0 mps 702 mmHg 97%
09:00 +21°C° 0.2 mm 0 mps 702 mmHg 96%
10:00 +23°C° 0.2 mm 1 mps 703 mmHg 96%
11:00 +25°C° 0.2 mm 1 mps 702 mmHg 87%
12:00 +26°C° 0.2 mm 1 mps 702 mmHg 79%
13:00 +28°C° 0.2 mm 1 mps 701 mmHg 70%
14:00 +27°C° 0.8 mm 1 mps 700 mmHg 76%
15:00 +27°C° 0.8 mm 1 mps 699 mmHg 82%
16:00 +26°C° 0.8 mm 1 mps 699 mmHg 88%
17:00 +25°C° 0.7 mm 1 mps 699 mmHg 91%
18:00 +24°C° 0.7 mm 1 mps 699 mmHg 94%
19:00 +21°C° 0.7 mm 0 mps 699 mmHg 97%
20:00 +22°C° 0.8 mm 1 mps 700 mmHg 97%
21:00 +22°C° 0.8 mm 1 mps 701 mmHg 98%
22:00 +22°C° 0.8 mm 1 mps 701 mmHg 98%
23:00 +22°C° 0.2 mm 1 mps 701 mmHg 98%

Day after tomorrow, 24 September, Thursday

Time Temperature Precipitation Wind Pressure Humidity
00:00 +22°C° 0.2 mm 1 mps 701 mmHg 99%
01:00 +22°C° 0.2 mm 1 mps 701 mmHg 99%
02:00 +22°C° 0 mm 1 mps 700 mmHg 99%
03:00 +22°C° 0 mm 1 mps 700 mmHg 99%
04:00 +22°C° 0 mm 1 mps 700 mmHg 99%
05:00 +22°C° 0 mm 1 mps 700 mmHg 99%
06:00 +22°C° 0 mm 1 mps 701 mmHg 99%
07:00 +20°C° 0 mm 0 mps 701 mmHg 99%
08:00 +23°C° 0 mm 1 mps 702 mmHg 96%
09:00 +23°C° 0 mm 1 mps 702 mmHg 92%
10:00 +24°C° 0 mm 1 mps 702 mmHg 89%
11:00 +26°C° 0.1 mm 1 mps 702 mmHg 81%
12:00 +28°C° 0.1 mm 1 mps 701 mmHg 73%
13:00 +29°C° 0.1 mm 1 mps 700 mmHg 65%
14:00 +27°C° 0.7 mm 0 mps 700 mmHg 68%
15:00 +27°C° 0.7 mm 0 mps 699 mmHg 72%
16:00 +26°C° 0.7 mm 0 mps 699 mmHg 76%
17:00 +25°C° 1.2 mm 0 mps 699 mmHg 83%
18:00 +25°C° 1.2 mm 1 mps 699 mmHg 89%
19:00 +23°C° 1.2 mm 1 mps 700 mmHg 96%
20:00 +23°C° 1.9 mm 1 mps 700 mmHg 96%
21:00 +23°C° 1.9 mm 1 mps 701 mmHg 97%
22:00 +20°C° 1.9 mm 0 mps 701 mmHg 97%
23:00 +22°C° 0.9 mm 1 mps 701 mmHg 98%

25 September, Friday

Time Temperature Precipitation Wind Pressure Humidity
00:00 +22°C° 0.9 mm 1 mps 701 mmHg 98%
01:00 +22°C° 0.9 mm 1 mps 701 mmHg 99%
02:00 +22°C° 0.4 mm 1 mps 700 mmHg 99%
03:00 +22°C° 0.4 mm 1 mps 700 mmHg 99%
04:00 +22°C° 0.4 mm 1 mps 700 mmHg 99%
05:00 +22°C° 0.2 mm 1 mps 700 mmHg 99%
06:00 +22°C° 0.2 mm 1 mps 701 mmHg 99%
07:00 +22°C° 0.2 mm 1 mps 701 mmHg 99%
08:00 +22°C° 0.1 mm 1 mps 702 mmHg 98%
09:00 +20°C° 0.1 mm 0 mps 702 mmHg 98%
10:00 +21°C° 0.1 mm 0 mps 702 mmHg 97%
11:00 +21°C° 0.1 mm 0 mps 702 mmHg 96%
12:00 +21°C° 0.1 mm 0 mps 701 mmHg 95%
13:00 +21°C° 0.1 mm 0 mps 700 mmHg 94%
14:00 +21°C° 0 mm 0 mps 700 mmHg 91%
15:00 +22°C° 0 mm 0 mps 700 mmHg 88%
16:00 +24°C° 0 mm 1 mps 699 mmHg 86%
17:00 +23°C° 0 mm 1 mps 700 mmHg 88%
18:00 +23°C° 0 mm 1 mps 700 mmHg 91%
19:00 +22°C° 0 mm 1 mps 700 mmHg 93%
20:00 +22°C° 0 mm 1 mps 700 mmHg 95%
21:00 +19°C° 0 mm 0 mps 700 mmHg 96%
22:00 +19°C° 0 mm 0 mps 701 mmHg 98%
23:00 +19°C° 0 mm 0 mps 700 mmHg 98%

26 September, Saturday

Time Temperature Precipitation Wind Pressure Humidity
00:00 +19°C° 0 mm 0 mps 700 mmHg 99%
01:00 +18°C° 0 mm 0 mps 700 mmHg 99%
02:00 +18°C° 0 mm 0 mps 700 mmHg 99%
03:00 +18°C° 0 mm 0 mps 699 mmHg 99%
04:00 +18°C° 0 mm 0 mps 699 mmHg 99%
05:00 +19°C° 0 mm 0 mps 700 mmHg 98%
06:00 +19°C° 0 mm 0 mps 700 mmHg 97%
07:00 +19°C° 0 mm 0 mps 700 mmHg 96%
08:00 +21°C° 0.1 mm 0 mps 701 mmHg 87%
09:00 +25°C° 0.1 mm 1 mps 701 mmHg 78%
10:00 +27°C° 0.1 mm 1 mps 702 mmHg 70%
11:00 +28°C° 0.4 mm 1 mps 701 mmHg 70%
12:00 +28°C° 0.4 mm 1 mps 700 mmHg 71%
13:00 +29°C° 0.4 mm 1 mps 699 mmHg 72%
14:00 +28°C° 0.6 mm 1 mps 698 mmHg 76%
15:00 +25°C° 0.6 mm 0 mps 698 mmHg 80%
16:00 +24°C° 0.6 mm 0 mps 697 mmHg 84%
17:00 +25°C° 0.4 mm 1 mps 698 mmHg 88%
18:00 +24°C° 0.4 mm 1 mps 698 mmHg 93%
19:00 +22°C° 0.4 mm 1 mps 698 mmHg 97%
20:00 +22°C° 0.5 mm 1 mps 699 mmHg 97%
21:00 +22°C° 0.5 mm 1 mps 699 mmHg 98%
22:00 +22°C° 0.5 mm 1 mps 700 mmHg 98%
23:00 +21°C° 0 mm 1 mps 700 mmHg 98%

27 September, Sunday

Time Temperature Precipitation Wind Pressure Humidity
00:00 +21°C° 0 mm 1 mps 699 mmHg 99%
01:00 +21°C° 0 mm 1 mps 699 mmHg 99%
02:00 +21°C° 0 mm 1 mps 699 mmHg 99%
03:00 +21°C° 0 mm 1 mps 699 mmHg 98%
04:00 +21°C° 0 mm 1 mps 699 mmHg 98%
05:00 +21°C° 0 mm 1 mps 699 mmHg 98%
06:00 +22°C° 0 mm 1 mps 699 mmHg 97%
07:00 +22°C° 0 mm 1 mps 700 mmHg 97%
08:00 +23°C° 0 mm 1 mps 700 mmHg 92%
09:00 +24°C° 0 mm 1 mps 700 mmHg 86%
10:00 +25°C° 0 mm 1 mps 701 mmHg 81%
11:00 +26°C° 0.4 mm 1 mps 700 mmHg 79%
12:00 +27°C° 0.4 mm 1 mps 699 mmHg 76%
13:00 +29°C° 0.4 mm 1 mps 699 mmHg 73%
14:00 +28°C° 1.2 mm 1 mps 698 mmHg 78%
15:00 +28°C° 1.2 mm 1 mps 697 mmHg 83%
16:00 +27°C° 1.2 mm 1 mps 697 mmHg 88%
17:00 +25°C° 0.3 mm 1 mps 697 mmHg 90%
18:00 +22°C° 0.3 mm 0 mps 697 mmHg 93%
19:00 +21°C° 0.3 mm 0 mps 698 mmHg 96%
20:00 +20°C° 0.3 mm 0 mps 698 mmHg 96%
21:00 +20°C° 0.3 mm 0 mps 699 mmHg 96%
22:00 +20°C° 0.3 mm 0 mps 700 mmHg 97%
23:00 +20°C° 0.6 mm 0 mps 699 mmHg 97%
Show more